Regional Weather Roundup
Issued by NWS

Home | Current Version | Previous Version | Graphics & Text | Print | Product List | Glossary On
Versions: 1 2 3 4 5 6 7 8 9 10 11 12 13 14 15 16 17 18 19 20 21 22 23 24 25 26 27 28 29 30 31 32 33 34 35 36 37 38 39 40 41 42 43 44 45 46 47 48 49 50
000
ASUS43 KMKX 251500
RWRWI

WISCONSIN REGIONAL WEATHER ROUNDUP
NATIONAL WEATHER SERVICE MILWAUKEE/SULLIVAN WI
1000 AM CDT TUE APR 25 2017

NOTE: "FAIR" INDICATES FEW OR NO CLOUDS BELOW 12,000 FEET WITH NO
SIGNIFICANT WEATHER AND/OR OBSTRUCTIONS TO VISIBILITY.

WIZ001-002-006>008-014>016-023>028-251600-
NORTHWEST WISCONSIN

CITY           SKY/WX    TMP DP  RH WIND       PRES   REMARKS
SUPERIOR ARPT  PTSUNNY   42  38  87 E13       29.60S
ASHLAND        CLOUDY    50  40  68 N5        29.58F
HAYWARD        CLOUDY    61  35  37 CALM      29.55S
SIREN          CLOUDY    50  44  78 CALM      29.53F
CUMBERLAND     CLOUDY    59  34  38 SE7       29.53F
RICE LAKE      MOSUNNY   63  34  33 SE8       29.56R
CHETEK         MOSUNNY   62  38  40 SE9       29.55S
LADYSMITH      MOSUNNY   61  37  39 SE9       29.58F
EAU CLAIRE     NOT AVBL
MENOMONIE      PTSUNNY   66  36  33 S7        29.54R
NEW RICHMOND   PTSUNNY   65  36  33 S10       29.52S
OSCEOLA        CLOUDY    61  40  46 S8        29.55R
$$

WIZ003>005-009-010-017-018-251600-
NORTH CENTRAL WISCONSIN

CITY           SKY/WX    TMP DP  RH WIND       PRES   REMARKS
MANITOWISH WTR CLOUDY    58  37  45 SE12      29.60F
ARBOR VITAE    CLOUDY    59  37  43 S13       29.60F
WOODRUFF       CLOUDY    59  37  43 S13       29.60F
RHINELANDER    CLOUDY    63  37  38 S9        29.62F
EAGLE RIVER    PTSUNNY   59  33  38 S8        29.63S
LAND O LAKES   PTSUNNY   56  35  45 S7        29.66S
PHILLIPS       CLOUDY    62  37  40 S12G17    29.58S
TOMAHAWK       PTSUNNY   61  37  41 S6        29.62F
MEDFORD        SUNNY     59  39  48 SE10      29.59F
MERRILL        MOSUNNY   60  39  46 SE10      29.62F
$$

WIZ029-030-035-036-043>047-251600-
CENTRAL WISCONSIN

CITY           SKY/WX    TMP DP  RH WIND       PRES   REMARKS
WAUSAU         SUNNY     63  40  42 SE12      29.60F
MOSINEE        NOT AVBL
MARSHFIELD     SUNNY     64  39  39 S12       29.59S
STEVENS POINT  SUNNY     61  40  44 S8        29.63F
WAUPACA        SUNNY     65  43  44 SE9       29.64F
WAUTOMA        SUNNY     66  44  45 S9        29.63F
WISC RAPIDS    NOT AVBL
CAMP DOUGLAS   NOT AVBL
$$

WIZ011>013-019>022-031-037>040-048>050-251600-
NORTHEAST WISCONSIN

CITY           SKY/WX    TMP DP  RH WIND       PRES   REMARKS
ANTIGO         SUNNY     57  41  54 SE13      29.65F
SHAWANO        SUNNY     63  45  51 SE8       29.66F
OCONTO         MOSUNNY   56  45  65 SE14      29.69F
STURGEON BAY   SUNNY     56  46  69 S17G30    29.71S
GREEN BAY      SUNNY     61  50  67 S15       29.68F
MANITOWOC      NOT AVBL
APPLETON       NOT AVBL
CLINTONVILLE   SUNNY     63  43  48 SE10      29.64F
OSHKOSH        SUNNY     63  46  54 SE15      29.64F
$$

WIZ032>034-041-042-053>061-251600-
SOUTHWEST WISCONSIN

CITY           SKY/WX    TMP DP  RH WIND       PRES   REMARKS
LA CROSSE      MOSUNNY   67  39  35 S10       29.56F
SPARTA         SUNNY     65  37  35 S7        29.60R
VIROQUA        MOSUNNY   64  37  35 S10       29.60S
BOSCOBEL       MOSUNNY   67  40  37 S7        29.60S
PRAIRIE DU CHI CLOUDY    63  36  36 SE7       29.58F
PLATTEVILLE    PTSUNNY   64  42  44 S14       29.63S
$$

WIZ056-057-062-063-064-067-068-251600-
SOUTH CENTRAL WISCONSIN

CITY           SKY/WX    TMP DP  RH WIND       PRES   REMARKS
REEDSBURG      SUNNY     63  41  44 S10       29.61S
BARABOO/DELLS  SUNNY     63  40  42 S12       29.62S
LONE ROCK      NOT AVBL
MINERAL POINT  SUNNY     63  41  45 S10       29.63S
MADISON        PTSUNNY   65  43  44 S15       29.63S
MIDDLETON      SUNNY     65  42  41 S15       29.64S
WATERTOWN      SUNNY     65  47  52 S7G16     29.65F
MONROE         SUNNY     64  43  45 S13G20    29.64F
JANESVILLE     PTSUNNY   70  45  40 S12G17    29.66R
$$

WIZ051-052-058>065-066-070>072-251600-
SOUTHEAST WISCONSIN

CITY           SKY/WX    TMP DP  RH WIND       PRES   REMARKS
MILWAUKEE      MOSUNNY   63  50  62 SE10      29.68F
WAUKESHA       SUNNY     63  46  55 SE9       29.68F
MILWAUKEE/TIMM SUNNY     64  45  48 SE8       29.68F
RACINE         SUNNY     57  48  72 S12       29.71F
KENOSHA        SUNNY     66  51  58 SE9       29.69F
FOND DU LAC    SUNNY     65  45  48 SE13      29.65F
SHEBOYGAN      SUNNY     55  48  77 S12       29.70F
WEST BEND      SUNNY     61  46  59 S7        29.68F
JUNEAU         SUNNY     63  46  52 SE10G16   29.67S
$$

LSZ147-162-251600-
LAKE SUPERIOR

STATION/POSITION TIME  TEMP    WIND        PRES    WAVE
                       AIR SEA DIR/SP/G            HT/PER
                 (UTC) (F)     (DEG/KT/KT) (MB)    (FT/S)
DEVILS ISLAND    1400   39      60/ 13/ 14 1003.1R
SAXON HARBOR     1430   44      50/  2/  5 1002.0R
$$

LMZ867-665-643>646-251600-
LAKE MICHIGAN

STATION/POSITION TIME  TEMP    WIND        PRES    WAVE
                       AIR SEA DIR/SP/G            HT/PER
                 (UTC) (F)     (DEG/KT/KT) (MB)    (FT/S)
CHAMBERS ISLAND  1440   57     150/ 10/ 15 1006.1S
N MID LAKE BUOY  1350   44 37  140/  6/  6 1008.6F   1/ 3
NORTHPORT PIER   1440   48     150/ 11/ 17 1006.8F
KEWAUNEE LAKESHO 1430   47     180/  9/ 12 1006.2F
SHEBOYGAN LAKESH 1400   45     180/  7/  8 1006.5F
PORT WASHINGTON  1440   48     150/  5/  7 1006.8F
MILWAUKEE LAKESH 1430   48     140/ 13/ 15   N/A
S MID LAKE BUOY  1350   46 41  120/ 12/ 14 1007.1F   2/ 3
KENOSHA   LAKESH 1400   49     160/ 13/ 14 1006.4
$$

TC  - TEMPERATURE IN CELSIUS
VSB - VISIBILITY IN STATUTE MILES
WCI - WIND CHILL INDEX
HX  - HEAT INDEX





USA.gov is the U.S. government's official web portal to all federal, state and local government web resources and services.